Location: Albuquerque Trailhead
(34.7934°N, 106.3736°W)
Time: 23:14:14
(UTC+00:00)

ALOS - Pass Details

Date: 20 June 2021
Orbit: 683 x 684 km, 97.9° (Epoch: 01 August)

Event Time Altitude Azimuth Distance (km) Brightness Sun altitude
Rises 10:52:19 0° 16° (NNE) 3,053 6.6 -11.0°
Reaches altitude 10° 10:54:37 10° 21° (NNE) 2,133 5.8 -10.7°
Maximum altitude 10:59:12 58° 100° (E) 800 2.9 -9.9°
Drops below altitude 10° 11:03:46 10° 180° (S) 2,119 4.5 -9.2°
Sets 11:06:02 0° 184° (S) 3,030 5.2 -8.8°
